Location: Squirrel Cove
(50.1074°N, 124.9139°W)
Time: 20:05:25
(UTC-08:00)

Envisat - Pass Details

Date: 26 November 2022
Orbit: 763 x 765 km, 98.2° (Epoch: 05 February)

Event Time Altitude Azimuth Distance (km) Brightness Sun altitude
Rises 17:01:18 0° 213° (SSW) 3,220 7.4 -6.1°
Reaches altitude 10° 17:04:28 10° 234° (SW) 2,300 7.2 -6.6°
Maximum altitude 17:07:36 16° 272° (W) 1,903 6.1 -7.0°
Drops below altitude 10° 17:10:45 10° 311° (NW) 2,312 5.8 -7.5°
Sets 17:13:58 0° 332° (NNW) 3,245 6.3 -8.0°
